Medford, WI

7:26 PM CST on December 06, 2019 (GMT -0600)
Taylor County

Weather History for KMDZ - November, 2019

Change the Weather History Date:

Sunday, November 17, 2019

  Actual Average Record
Temperature  
Mean Temperature 30 °F -  
Max Temperature 31 °F 38 °F 69 °F (1953)
Min Temperature 30 °F 24 °F -5 °F (1959)
Degree Days  
Heating Degree Days 34    
Moisture  
Dew Point 29 °F    
Average Humidity 93    
Maximum Humidity 100    
Minimum Humidity 80    
Precipitation  
Precipitation 0.00 in - - ()
Sea Level Pressure  
Sea Level Pressure 29.86 in    
Wind  
Wind Speed 8 mph (SSW)    
Max Wind Speed 14 mph    
Max Gust Speed 18 mph    
Visibility 4 miles    
Events Fog , Snow    
Averages and records for this station are not official NWS values.
T = Trace of Precipitation, MM = Missing Value Source: NWS Daily Summary

Daily Weather History Graph

Daily Weather History Graph

Search for Another Location

Airport or City:

Astronomy

Nov. 17, 2019 Rise Set
Actual Time 7:01 AM CST 4:30 PM CST
Civil Twilight 6:29 AM CST 5:02 PM CST
Nautical Twilight 5:53 AM CST 5:38 PM CST
Astronomical Twilight 5:18 AM CST 6:12 PM CST
Moon 9:03 PM CST (11/17) 11:51 AM CST (11/17)
Length of Visible Light 10h 32m
Length of Day
9h 28m
Waning Gibbous, 73% of the Moon is Illuminated
Nov 17
Waning Gibbous
Nov 19
Last Quarter
Nov 26
New
Dec 4
First Quarter
Dec 11
Full

Hourly Weather History & Observations

Time (CST) Temp. Windchill Dew Point Humidity Pressure Visibility Wind Dir Wind Speed Gust Speed Precip Events Conditions
12:15 AM 30.2 °F 21.3 °F 25.5 °F 83% 30.04 in 5.0 mi SSE 10.4 mph - N/A   Haze
12:35 AM 30.4 °F 21.5 °F 25.7 °F 83% 30.04 in 5.0 mi SSE 10.4 mph - N/A   Scattered Clouds
12:55 AM 30.7 °F 20.9 °F 25.7 °F 82% 30.03 in 5.0 mi South 12.7 mph - N/A   Haze
1:15 AM 30.7 °F 21.4 °F 25.7 °F 82% 30.02 in 5.0 mi SSE 11.5 mph - N/A   Haze
1:35 AM 30.7 °F 22.0 °F 25.7 °F 82% 30.01 in 5.0 mi SSE 10.4 mph 16.1 mph N/A   Haze
1:55 AM 30.7 °F 20.9 °F 25.7 °F 82% 30.00 in 5.0 mi SSE 12.7 mph - N/A   Haze
2:15 AM 30.9 °F 21.7 °F 25.7 °F 81% 30.00 in 5.0 mi South 11.5 mph - N/A   Haze
2:35 AM 31.1 °F 20.9 °F 25.7 °F 80% 29.98 in 5.0 mi SSE 13.8 mph 18.4 mph N/A   Haze
2:55 AM 31.1 °F 22.4 °F 25.7 °F 80% 29.97 in 5.0 mi South 10.4 mph 17.3 mph N/A   Haze
3:15 AM 30.9 °F 21.7 °F 25.7 °F 81% 29.96 in 5.0 mi SSE 11.5 mph - N/A   Haze
3:35 AM 30.7 °F 23.3 °F 25.9 °F 82% 29.96 in 5.0 mi South 8.1 mph - N/A   Haze
3:55 AM 30.7 °F 23.3 °F 26.1 °F 83% 29.96 in 5.0 mi SSE 8.1 mph - N/A   Haze
4:15 AM 30.2 °F 22.6 °F 26.1 °F 85% 29.95 in 5.0 mi SSE 8.1 mph - N/A   Scattered Clouds
4:35 AM 30.2 °F 21.9 °F 26.4 °F 86% 29.94 in 5.0 mi SSE 9.2 mph - N/A   Mostly Cloudy
4:55 AM 30.6 °F 23.1 °F 26.6 °F 85% 29.93 in 5.0 mi SSE 8.1 mph - N/A   Overcast
5:15 AM 30.7 °F 23.3 °F 26.8 °F 85% 29.93 in 5.0 mi South 8.1 mph - N/A   Overcast
5:35 AM 30.2 °F 22.6 °F 26.6 °F 86% 29.93 in 5.0 mi South 8.1 mph - N/A   Mostly Cloudy
5:55 AM 30.2 °F 23.4 °F 27.0 °F 88% 29.91 in 4.0 mi SSE 6.9 mph - N/A   Mostly Cloudy
6:15 AM 30.2 °F 23.4 °F 27.1 °F 88% 29.91 in 4.0 mi South 6.9 mph - N/A   Scattered Clouds
6:35 AM 30.2 °F 21.9 °F 27.3 °F 89% 29.91 in 4.0 mi South 9.2 mph - N/A   Mostly Cloudy
6:55 AM 30.6 °F 23.1 °F 27.5 °F 88% 29.90 in 4.0 mi South 8.1 mph - N/A   Overcast
7:15 AM 30.6 °F 22.4 °F 27.5 °F 88% 29.90 in 3.0 mi SSE 9.2 mph - N/A Snow Light Snow
7:35 AM 30.2 °F 22.6 °F 27.3 °F 89% 29.89 in 4.0 mi SSE 8.1 mph - N/A   Mostly Cloudy
7:55 AM 30.7 °F 22.6 °F 27.5 °F 88% 29.89 in 4.0 mi SSE 9.2 mph - N/A   Mostly Cloudy
8:15 AM 30.6 °F 22.4 °F 28.0 °F 90% 29.89 in 2.0 mi SSE 9.2 mph - N/A Snow Light Snow
8:35 AM 30.2 °F 21.9 °F 28.4 °F 93% 29.89 in 2.0 mi SSE 9.2 mph - N/A Snow Light Snow
8:55 AM 30.2 °F 22.6 °F 28.4 °F 93% 29.88 in 2.5 mi SSE 8.1 mph - N/A   Overcast
9:15 AM 30.2 °F 22.6 °F 28.8 °F 94% 29.88 in 2.5 mi South 8.1 mph - N/A   Overcast
9:35 AM 30.4 °F 22.9 °F 28.9 °F 94% 29.88 in 3.0 mi South 8.1 mph - N/A   Overcast
9:55 AM 30.7 °F 24.1 °F 29.3 °F 94% 29.88 in 2.5 mi South 6.9 mph - N/A   Overcast
10:15 AM 30.7 °F 24.1 °F 29.7 °F 96% 29.87 in 1.5 mi South 6.9 mph - N/A   Overcast
10:35 AM 30.9 °F 25.2 °F 30.0 °F 96% 29.87 in 1.5 mi South 5.8 mph - N/A   Overcast
10:55 AM 31.1 °F 24.5 °F 30.2 °F 96% 29.86 in 1.2 mi South 6.9 mph - N/A   Overcast
11:15 AM 31.1 °F 23.7 °F 30.4 °F 97% 29.85 in 1.5 mi South 8.1 mph - N/A   Overcast
11:35 AM 31.1 °F 24.5 °F 30.2 °F 96% 29.84 in 2.0 mi South 6.9 mph - N/A   Overcast
12:15 PM 31.6 °F 26.0 °F 30.2 °F 94% 29.83 in 2.0 mi South 5.8 mph - N/A   Overcast
12:35 PM 31.6 °F 25.1 °F 30.2 °F 94% 29.82 in 2.0 mi South 6.9 mph - N/A   Overcast
12:55 PM 31.6 °F 25.1 °F 30.6 °F 96% 29.81 in 1.8 mi SSW 6.9 mph - N/A   Overcast
1:15 PM 31.6 °F 25.1 °F 30.6 °F 96% 29.81 in 1.5 mi SSW 6.9 mph - N/A   Overcast
1:35 PM 31.8 °F 25.4 °F 30.7 °F 96% 29.80 in 2.0 mi SSW 6.9 mph - N/A   Overcast
1:55 PM 31.8 °F 26.2 °F 30.7 °F 96% 29.79 in 2.0 mi SSW 5.8 mph - N/A   Overcast
2:15 PM 31.8 °F 27.3 °F 30.7 °F 96% 29.79 in 2.5 mi SW 4.6 mph - N/A   Overcast
2:35 PM 31.8 °F 26.2 °F 30.9 °F 96% 29.79 in 1.5 mi SW 5.8 mph - N/A   Overcast
2:55 PM 31.6 °F 28.3 °F 31.1 °F 98% 29.79 in 0.8 mi SW 3.5 mph - N/A   Overcast
3:15 PM 31.6 °F - 31.1 °F 98% 29.79 in 0.5 mi Calm Calm - N/A Fog Light Freezing Fog
3:35 PM 31.6 °F 28.3 °F 31.3 °F 99% 29.79 in 0.5 mi SW 3.5 mph - N/A Fog Light Freezing Fog
3:55 PM 31.6 °F 28.3 °F 31.5 °F 99% 29.79 in 0.5 mi WSW 3.5 mph - N/A   Overcast
4:15 PM 31.6 °F 28.3 °F 31.5 °F 99% 29.79 in 0.5 mi WSW 3.5 mph - N/A   Overcast
4:35 PM 31.5 °F 28.1 °F 31.1 °F 99% 29.79 in 0.5 mi WSW 3.5 mph - N/A Snow Light Snow
4:55 PM 31.5 °F 28.1 °F 31.1 °F 99% 29.79 in 0.5 mi WSW 3.5 mph - N/A Snow Light Snow
5:15 PM 31.5 °F 28.1 °F 31.1 °F 99% 29.79 in 0.2 mi West 3.5 mph - N/A Snow Light Snow
5:35 PM 31.5 °F 28.1 °F 31.1 °F 99% 29.80 in 0.2 mi West 3.5 mph - N/A Snow Light Snow
5:55 PM 31.5 °F - 31.5 °F 100% 29.80 in 0.2 mi Calm Calm - N/A   Overcast
6:15 PM 31.5 °F - 31.3 °F 99% 29.81 in 0.2 mi Calm Calm - N/A   Overcast
6:35 PM 31.5 °F - 31.3 °F 99% 29.81 in 0.2 mi Calm Calm - N/A   Overcast
6:55 PM 31.5 °F 28.1 °F 31.5 °F 100% 29.81 in 0.2 mi West 3.5 mph - N/A Snow Light Snow
7:15 PM 31.5 °F 26.8 °F 31.5 °F 100% 29.80 in 0.8 mi West 4.6 mph - N/A   Overcast
7:35 PM 31.5 °F 28.1 °F 31.5 °F 100% 29.80 in 0.2 mi NW 3.5 mph - N/A Fog Light Freezing Fog
7:55 PM 31.5 °F 28.1 °F 31.5 °F 100% 29.79 in 1.5 mi WNW 3.5 mph - N/A   Overcast
8:15 PM 31.1 °F 27.7 °F 31.1 °F 100% 29.79 in 2.5 mi WNW 3.5 mph - N/A Snow Light Snow
8:35 PM 31.1 °F - 31.1 °F 100% 29.78 in 4.0 mi Calm Calm - N/A   Overcast
8:55 PM 31.1 °F - 31.1 °F 100% 29.78 in 5.0 mi Calm Calm - N/A   Overcast
9:15 PM 31.1 °F 27.7 °F 30.9 °F 99% 29.78 in 7.0 mi NW 3.5 mph - N/A   Overcast
9:35 PM 31.1 °F 27.7 °F 30.7 °F 99% 29.78 in 7.0 mi WNW 3.5 mph - N/A   Overcast
9:55 PM 31.1 °F 26.4 °F 30.6 °F 98% 29.78 in 10.0 mi WNW 4.6 mph - N/A   Overcast
10:15 PM 30.7 °F 26.0 °F 30.2 °F 98% 29.78 in 10.0 mi WNW 4.6 mph - N/A   Overcast
10:35 PM 30.7 °F 27.3 °F 30.0 °F 97% 29.78 in 10.0 mi WNW 3.5 mph - N/A   Overcast
10:55 PM 30.6 °F 27.1 °F 29.8 °F 97% 29.78 in 10.0 mi WNW 3.5 mph - N/A   Overcast
11:15 PM 30.2 °F - 29.3 °F 96% 29.78 in 10.0 mi Calm Calm - N/A   Overcast
11:35 PM 30.2 °F 26.7 °F 29.1 °F 96% 29.78 in 10.0 mi WNW 3.5 mph - N/A   Overcast
11:55 PM 30.2 °F 25.4 °F 28.9 °F 95% 29.78 in 10.0 mi NW 4.6 mph - N/A   Overcast